QPF
0.00 0.00 0.01 0.00 0.01 0.01 0.00 0.00 0.00 0.01 0.01 0.01 0.02 0.02 0.02 0.03 0.04 0.03 0.02 0.01 0.01 0.01 0.02 0.02 0.02 0.02 0.01 0.02 0.02 0.01 0.01 0.00 0.00 0.00 0.01 0.01 0.01 0.01 0.01 0.01 0.01 0.01 0.01
0.00 0.01 0.01 0.00 0.00 0.00 0.00 0.00 0.00 0.00 0.01 0.01 0.02 0.02 0.02 0.01 0.02 0.02 0.02 0.01 0.01 0.01 0.01 0.02 0.02 0.02 0.02 0.01 0.02 0.01 0.01 0.00 0.01 0.01 0.01 0.01 0.02 0.01 0.01 0.01 0.00 0.00 0.00
0.01 0.01 0.01 0.00 0.00 0.00 0.00 0.00 0.00 0.00 0.01 0.01 0.02 0.02 0.02 0.01 0.01 0.01 0.02 0.01 0.01 0.01 0.01 0.01 0.02 0.03 0.02 0.02 0.02 0.01 0.01 0.01 0.01 0.01 0.01 0.01 0.02 0.03 0.01 0.01 0.01 0.01 0.01
0.01 0.01 0.02 0.01 0.01 0.00 0.00 0.00 0.00 0.00 0.01 0.01 0.02 0.02 0.02 0.02 0.02 0.02 0.02 0.01 0.01 0.01 0.01 0.01 0.01 0.01 0.02 0.03 0.02 0.02 0.01 0.01 0.01 0.01 0.00 0.00 0.01 0.02 0.02 0.02 0.02 0.02 0.02
0.01 0.01 0.01 0.01 0.01 0.01 0.00 0.00 0.00 0.01 0.01 0.01 0.01 0.02 0.02 0.02 0.03 0.02 0.02 0.02 0.02 0.02 0.01 0.01 0.02 0.01 0.02 0.03 0.03 0.02 0.02 0.01 0.01 0.01 0.00 0.00 0.00 0.00 0.01 0.02 0.02 0.03 0.02
0.01 0.01 0.01 0.01 0.01 0.01 0.01 0.01 0.01 0.01 0.01 0.02 0.02 0.02 0.02 0.03 0.04 0.03 0.03 0.03 0.02 0.02 0.01 0.02 0.02 0.02 0.01 0.02 0.03 0.03 0.03 0.02 0.01 0.01 0.01 0.01 0.00 0.00 0.00 0.01 0.02 0.02 0.02
0.01 0.01 0.01 0.01 0.01 0.01 0.01 0.01 0.01 0.01 0.01 0.02 0.03 0.04 0.05 0.06 0.07 0.06 0.05 0.03 0.02 0.01 0.01 0.01 0.02 0.02 0.02 0.02 0.02 0.03 0.03 0.03 0.02 0.02 0.02 0.02 0.02 0.01 0.01 0.01 0.01 0.01 0.01
0.01 0.01 0.01 0.01 0.02 0.02 0.01 0.01 0.01 0.00 0.01 0.02 0.03 0.03 0.04 0.06 0.06 0.06 0.06 0.05 0.04 0.03 0.02 0.01 0.02 0.02 0.03 0.04 0.03 0.02 0.02 0.02 0.02 0.02 0.02 0.03 0.02 0.02 0.01 0.01 0.01 0.01 0.01
0.01 0.00 0.00 0.01 0.01 0.01 0.01 0.00 0.01 0.01 0.01 0.02 0.03 0.04 0.03 0.04 0.04 0.04 0.04 0.06 0.07 0.06 0.04 0.02 0.02 0.02 0.04 0.05 0.05 0.03 0.02 0.02 0.01 0.01 0.01 0.01 0.01 0.01 0.01 0.01 0.00 0.01 0.01
0.00 0.00 0.00 0.00 0.00 0.01 0.00 0.01 0.01 0.01 0.03 0.05 0.05 0.06 0.04 0.03 0.02 0.04 0.03 0.02 0.03 0.05 0.07 0.06 0.03 0.03 0.04 0.05 0.05 0.05 0.03 0.02 0.01 0.01 0.01 0.01 0.01 0.01 0.00 0.00 0.00 0.00 0.00
0.00 0.00 0.00 0.01 0.01 0.01 0.01 0.01 0.01 0.03 0.04 0.05 0.05 0.04 0.02 0.02 0.01 0.02 0.02 0.02 0.02 0.02 0.03 0.05 0.04 0.05 0.05 0.05 0.05 0.04 0.03 0.02 0.01 0.01 0.01 0.01 0.01 0.00 0.01 0.01 0.00 0.00 0.00
0.00 0.01 0.01 0.01 0.02 0.02 0.02 0.02 0.02 0.02 0.02 0.02 0.02 0.02 0.02 0.02 0.02 0.01 0.01 0.02 0.01 0.01 0.02 0.03 0.03 0.05 0.06 0.07 0.07 0.06 0.04 0.03 0.01 0.01 0.01 0.01 0.01 0.01 0.00 0.01 0.00 0.01 0.01
0.01 0.02 0.02 0.02 0.02 0.01 0.01 0.01 0.01 0.01 0.02 0.02 0.02 0.02 0.02 0.03 0.02 0.01 0.02 0.01 0.01 0.02 0.01 0.02 0.02 0.03 0.06 0.08 0.08 0.07 0.06 0.04 0.02 0.02 0.01 0.01 0.00 0.00 0.01 0.01 0.00 0.00 0.00
0.01 0.01 0.01 0.01 0.02 0.02 0.01 0.01 0.01 0.02 0.02 0.03 0.03 0.02 0.02 0.02 0.02 0.03 0.02 0.02 0.02 0.02 0.02 0.01 0.02 0.03 0.05 0.08 0.10 0.09 0.07 0.06 0.03 0.02 0.01 0.01 0.01 0.01 0.01 0.01 0.00 0.00 0.00
0.01 0.00 0.01 0.01 0.01 0.01 0.01 0.01 0.01 0.01 0.02 0.02 0.03 0.03 0.03 0.03 0.03 0.03 0.02 0.02 0.02 0.02 0.02 0.03 0.03 0.04 0.06 0.07 0.09 0.08 0.06 0.06 0.04 0.02 0.02 0.02 0.01 0.02 0.02 0.02 0.01 0.01 0.00
0.01 0.00 0.00 0.00 0.00 0.00 0.00 0.00 0.00 0.01 0.01 0.01 0.02 0.04 0.04 0.04 0.03 0.03 0.03 0.03 0.03 0.03 0.04 0.05 0.06 0.05 0.05 0.06 0.08 0.09 0.07 0.05 0.05 0.03 0.02 0.03 0.02 0.01 0.02 0.02 0.02 0.01 0.01
0.01 0.01 0.00 0.00 0.00 0.00 0.00 0.00 0.00 0.00 0.01 0.01 0.01 0.03 0.04 0.04 0.04 0.04 0.04 0.03 0.03 0.03 0.04 0.04 0.04 0.05 0.05 0.05 0.06 0.08 0.07 0.05 0.04 0.03 0.03 0.02 0.02 0.02 0.02 0.02 0.02 0.01 0.01
0.01 0.01 0.01 0.00 0.00 0.00 0.00 0.00 0.00 0.00 0.00 0.01 0.01 0.02 0.03 0.05 0.06 0.07 0.07 0.05 0.04 0.04 0.04 0.04 0.03 0.03 0.04 0.06 0.07 0.06 0.07 0.05 0.03 0.03 0.03 0.02 0.02 0.03 0.04 0.03 0.02 0.01 0.01
0.02 0.01 0.01 0.01 0.00 0.00 0.00 0.00 0.00 0.00 0.00 0.01 0.01 0.02 0.02 0.05 0.08 0.07 0.06 0.06 0.06 0.05 0.03 0.03 0.03 0.03 0.03 0.06 0.07 0.07 0.05 0.05 0.03 0.02 0.02 0.02 0.02 0.03 0.04 0.03 0.01 0.01 0.01
0.01 0.01 0.01 0.01 0.01 0.00 0.00 0.00 0.00 0.00 0.00 0.00 0.01 0.02 0.02 0.02 0.03 0.05 0.06 0.07 0.06 0.05 0.03 0.03 0.03 0.03 0.03 0.05 0.06 0.08 0.07 0.06 0.03 0.02 0.02 0.02 0.02 0.03 0.05 0.04 0.02 0.01 0.01
0.01 0.01 0.01 0.01 0.01 0.01 0.01 0.00 0.00 0.00 0.01 0.01 0.01 0.01 0.02 0.02 0.02 0.02 0.02 0.02 0.02 0.02 0.01 0.02 0.02 0.03 0.03 0.04 0.05 0.08 0.09 0.08 0.06 0.03 0.02 0.02 0.02 0.03 0.04 0.03 0.02 0.02 0.02
0.01 0.01 0.01 0.01 0.01 0.01 0.01 0.01 0.01 0.01 0.01 0.01 0.01 0.01 0.02 0.03 0.02 0.02 0.02 0.02 0.02 0.02 0.02 0.02 0.03 0.04 0.04 0.05 0.06 0.06 0.07 0.08 0.07 0.05 0.02 0.02 0.02 0.02 0.02 0.02 0.02 0.04 0.04
0.01 0.02 0.01 0.01 0.02 0.02 0.01 0.01 0.01 0.01 0.01 0.01 0.01 0.01 0.02 0.02 0.02 0.02 0.02 0.03 0.03 0.03 0.03 0.03 0.03 0.03 0.04 0.06 0.07 0.07 0.07 0.06 0.07 0.06 0.04 0.02 0.02 0.02 0.01 0.02 0.03 0.04 0.03
0.01 0.01 0.02 0.02 0.02 0.02 0.01 0.01 0.01 0.01 0.01 0.01 0.01 0.01 0.01 0.01 0.01 0.01 0.02 0.02 0.03 0.03 0.03 0.03 0.03 0.03 0.04 0.05 0.07 0.10 0.10 0.08 0.06 0.06 0.05 0.03 0.02 0.02 0.01 0.02 0.03 0.03 0.03
0.00 0.00 0.01 0.01 0.02 0.02 0.01 0.01 0.01 0.01 0.01 0.01 0.01 0.01 0.01 0.00 0.00 0.00 0.01 0.01 0.02 0.02 0.03 0.04 0.04 0.04 0.05 0.05 0.05 0.08 0.11 0.11 0.08 0.07 0.06 0.04 0.03 0.01 0.01 0.01 0.01 0.01 0.02
0.00 0.00 0.00 0.01 0.01 0.01 0.00 0.00 0.00 0.01 0.01 0.01 0.00 0.00 0.00 0.00 0.00 0.00 0.00 0.01 0.01 0.02 0.02 0.03 0.04 0.05 0.06 0.06 0.06 0.06 0.07 0.11 0.12 0.09 0.06 0.04 0.04 0.03 0.01 0.01 0.01 0.01 0.02
MSLP
1026.90 1026.64 1026.39 1026.14 1025.88 1025.62 1025.38 1025.17 1025.02 1024.94 1024.93 1024.99 1025.09 1025.20 1025.28 1025.31 1025.26 1025.14 1024.96 1024.74 1024.52 1024.32 1024.18 1024.12 1024.12 1024.20 1024.32 1024.46 1024.61 1024.74 1024.86 1024.96 1025.05 1025.15 1025.25 1025.35 1025.45 1025.52 1025.54 1025.47 1025.30 1025.04 1024.68
1027.58 1027.37 1027.15 1026.92 1026.65 1026.35 1026.07 1025.81 1025.63 1025.53 1025.53 1025.62 1025.75 1025.89 1025.99 1026.02 1025.95 1025.78 1025.54 1025.25 1024.96 1024.71 1024.52 1024.43 1024.43 1024.50 1024.61 1024.74 1024.87 1024.98 1025.06 1025.14 1025.22 1025.32 1025.45 1025.61 1025.78 1025.93 1026.04 1026.07 1026.00 1025.81 1025.52
1028.13 1027.96 1027.78 1027.56 1027.29 1026.98 1026.67 1026.38 1026.17 1026.06 1026.05 1026.14 1026.29 1026.44 1026.55 1026.58 1026.48 1026.28 1025.99 1025.65 1025.31 1025.02 1024.80 1024.69 1024.66 1024.71 1024.80 1024.90 1024.99 1025.06 1025.11 1025.15 1025.22 1025.32 1025.47 1025.67 1025.91 1026.15 1026.35 1026.48 1026.50 1026.41 1026.20
1028.54 1028.39 1028.24 1028.04 1027.78 1027.47 1027.15 1026.85 1026.62 1026.49 1026.47 1026.55 1026.70 1026.85 1026.96 1026.97 1026.86 1026.64 1026.32 1025.95 1025.59 1025.27 1025.03 1024.89 1024.84 1024.86 1024.92 1024.98 1025.02 1025.04 1025.04 1025.05 1025.09 1025.19 1025.35 1025.59 1025.88 1026.18 1026.46 1026.68 1026.79 1026.79 1026.67
1028.84 1028.69 1028.55 1028.37 1028.14 1027.84 1027.52 1027.21 1026.97 1026.83 1026.80 1026.86 1026.99 1027.13 1027.23 1027.23 1027.11 1026.87 1026.55 1026.17 1025.80 1025.46 1025.21 1025.05 1024.98 1024.96 1024.98 1024.99 1024.98 1024.95 1024.91 1024.88 1024.90 1024.98 1025.15 1025.40 1025.71 1026.06 1026.39 1026.67 1026.85 1026.93 1026.90
1029.07 1028.92 1028.79 1028.62 1028.40 1028.13 1027.81 1027.51 1027.27 1027.11 1027.06 1027.10 1027.21 1027.33 1027.40 1027.39 1027.26 1027.03 1026.70 1026.33 1025.95 1025.62 1025.36 1025.18 1025.07 1025.02 1024.99 1024.96 1024.91 1024.84 1024.76 1024.70 1024.69 1024.76 1024.91 1025.15 1025.46 1025.81 1026.16 1026.47 1026.70 1026.84 1026.88
1029.29 1029.13 1029.00 1028.85 1028.65 1028.39 1028.09 1027.80 1027.54 1027.38 1027.30 1027.32 1027.39 1027.48 1027.53 1027.50 1027.37 1027.13 1026.81 1026.44 1026.07 1025.74 1025.46 1025.26 1025.13 1025.04 1024.97 1024.90 1024.81 1024.71 1024.61 1024.53 1024.50 1024.54 1024.67 1024.88 1025.16 1025.48 1025.81 1026.12 1026.37 1026.55 1026.65
1029.55 1029.40 1029.27 1029.13 1028.94 1028.69 1028.41 1028.11 1027.86 1027.67 1027.58 1027.56 1027.59 1027.64 1027.66 1027.61 1027.46 1027.22 1026.90 1026.53 1026.16 1025.82 1025.53 1025.31 1025.15 1025.02 1024.92 1024.82 1024.70 1024.58 1024.46 1024.37 1024.32 1024.34 1024.43 1024.60 1024.83 1025.10 1025.39 1025.66 1025.91 1026.11 1026.25
1029.88 1029.74 1029.63 1029.50 1029.32 1029.07 1028.79 1028.50 1028.24 1028.04 1027.91 1027.86 1027.85 1027.86 1027.84 1027.75 1027.58 1027.32 1027.00 1026.63 1026.25 1025.89 1025.58 1025.33 1025.13 1024.98 1024.84 1024.71 1024.58 1024.45 1024.32 1024.22 1024.15 1024.14 1024.19 1024.31 1024.48 1024.69 1024.92 1025.16 1025.38 1025.59 1025.77
1030.26 1030.16 1030.06 1029.94 1029.77 1029.54 1029.26 1028.96 1028.69 1028.48 1028.32 1028.23 1028.19 1028.15 1028.08 1027.96 1027.76 1027.48 1027.13 1026.74 1026.35 1025.97 1025.63 1025.35 1025.11 1024.92 1024.75 1024.60 1024.45 1024.31 1024.18 1024.06 1023.98 1023.94 1023.95 1024.01 1024.12 1024.26 1024.44 1024.63 1024.84 1025.05 1025.27
1030.67 1030.61 1030.55 1030.45 1030.28 1030.05 1029.78 1029.48 1029.21 1028.98 1028.81 1028.69 1028.61 1028.52 1028.42 1028.25 1028.01 1027.70 1027.33 1026.92 1026.49 1026.09 1025.72 1025.40 1025.12 1024.89 1024.69 1024.51 1024.34 1024.18 1024.03 1023.90 1023.79 1023.72 1023.69 1023.69 1023.74 1023.83 1023.95 1024.11 1024.30 1024.53 1024.78
1031.06 1031.06 1031.02 1030.94 1030.79 1030.57 1030.30 1030.02 1029.76 1029.53 1029.35 1029.21 1029.09 1028.97 1028.83 1028.62 1028.35 1028.00 1027.60 1027.16 1026.72 1026.29 1025.88 1025.53 1025.21 1024.94 1024.69 1024.47 1024.26 1024.07 1023.89 1023.73 1023.59 1023.48 1023.39 1023.35 1023.34 1023.38 1023.46 1023.59 1023.78 1024.02 1024.30
1031.38 1031.43 1031.43 1031.37 1031.23 1031.03 1030.79 1030.54 1030.29 1030.08 1029.90 1029.76 1029.63 1029.49 1029.31 1029.07 1028.76 1028.39 1027.97 1027.51 1027.04 1026.59 1026.16 1025.77 1025.42 1025.10 1024.81 1024.53 1024.27 1024.03 1023.79 1023.58 1023.38 1023.21 1023.08 1022.97 1022.92 1022.91 1022.96 1023.07 1023.25 1023.50 1023.81
1031.59 1031.69 1031.73 1031.70 1031.59 1031.42 1031.21 1031.00 1030.79 1030.61 1030.46 1030.32 1030.19 1030.03 1029.83 1029.57 1029.24 1028.86 1028.42 1027.96 1027.48 1027.02 1026.57 1026.16 1025.77 1025.41 1025.06 1024.72 1024.40 1024.08 1023.77 1023.48 1023.20 1022.96 1022.75 1022.59 1022.47 1022.41 1022.42 1022.51 1022.68 1022.93 1023.26
1031.70 1031.84 1031.91 1031.91 1031.83 1031.71 1031.55 1031.38 1031.23 1031.09 1030.97 1030.86 1030.73 1030.58 1030.37 1030.10 1029.77 1029.38 1028.94 1028.49 1028.02 1027.56 1027.12 1026.69 1026.28 1025.87 1025.47 1025.06 1024.65 1024.24 1023.84 1023.45 1023.08 1022.74 1022.45 1022.21 1022.02 1021.91 1021.87 1021.92 1022.07 1022.30 1022.62
1031.72 1031.88 1031.98 1032.01 1031.98 1031.90 1031.80 1031.70 1031.60 1031.52 1031.44 1031.35 1031.25 1031.10 1030.89 1030.62 1030.29 1029.91 1029.50 1029.07 1028.63 1028.19 1027.76 1027.34 1026.91 1026.47 1026.02 1025.54 1025.04 1024.54 1024.02 1023.52 1023.05 1022.61 1022.21 1021.88 1021.61 1021.43 1021.33 1021.32 1021.41 1021.59 1021.87
1031.66 1031.86 1031.98 1032.04 1032.06 1032.03 1031.99 1031.95 1031.91 1031.88 1031.84 1031.78 1031.69 1031.55 1031.36 1031.10 1030.78 1030.43 1030.04 1029.65 1029.25 1028.86 1028.46 1028.05 1027.63 1027.17 1026.67 1026.13 1025.55 1024.94 1024.33 1023.71 1023.12 1022.58 1022.08 1021.65 1021.29 1021.01 1020.83 1020.74 1020.75 1020.85 1021.05
1031.57 1031.79 1031.94 1032.03 1032.09 1032.11 1032.13 1032.14 1032.15 1032.16 1032.16 1032.13 1032.05 1031.92 1031.73 1031.49 1031.20 1030.87 1030.53 1030.18 1029.84 1029.49 1029.14 1028.76 1028.35 1027.88 1027.36 1026.77 1026.13 1025.44 1024.73 1024.02 1023.33 1022.68 1022.09 1021.56 1021.11 1020.74 1020.45 1020.26 1020.16 1020.16 1020.25
1031.47 1031.70 1031.87 1032.00 1032.09 1032.16 1032.22 1032.28 1032.33 1032.37 1032.39 1032.37 1032.31 1032.19 1032.01 1031.78 1031.51 1031.22 1030.92 1030.62 1030.33 1030.04 1029.74 1029.40 1029.01 1028.56 1028.03 1027.41 1026.73 1025.99 1025.22 1024.44 1023.67 1022.94 1022.27 1021.66 1021.12 1020.66 1020.27 1019.96 1019.74 1019.61 1019.57
1031.34 1031.59 1031.79 1031.95 1032.07 1032.17 1032.26 1032.35 1032.43 1032.49 1032.52 1032.51 1032.45 1032.34 1032.17 1031.95 1031.71 1031.45 1031.20 1030.95 1030.71 1030.48 1030.22 1029.93 1029.57 1029.14 1028.61 1028.00 1027.30 1026.54 1025.74 1024.92 1024.12 1023.35 1022.62 1021.96 1021.35 1020.81 1020.33 1019.92 1019.58 1019.31 1019.12
1031.18 1031.45 1031.67 1031.85 1032.00 1032.12 1032.24 1032.34 1032.43 1032.51 1032.55 1032.54 1032.49 1032.38 1032.22 1032.02 1031.81 1031.58 1031.37 1031.16 1030.97 1030.78 1030.56 1030.31 1029.99 1029.58 1029.08 1028.49 1027.81 1027.06 1026.27 1025.45 1024.65 1023.87 1023.14 1022.45 1021.81 1021.22 1020.67 1020.17 1019.72 1019.32 1019.00
1030.96 1031.25 1031.48 1031.68 1031.84 1031.98 1032.11 1032.23 1032.34 1032.42 1032.47 1032.47 1032.42 1032.33 1032.18 1032.01 1031.82 1031.63 1031.44 1031.27 1031.11 1030.95 1030.77 1030.55 1030.26 1029.89 1029.42 1028.87 1028.23 1027.52 1026.77 1026.00 1025.23 1024.49 1023.78 1023.11 1022.47 1021.86 1021.28 1020.72 1020.19 1019.69 1019.23
1030.65 1030.95 1031.19 1031.40 1031.58 1031.74 1031.88 1032.02 1032.13 1032.23 1032.29 1032.31 1032.28 1032.20 1032.09 1031.94 1031.78 1031.61 1031.45 1031.31 1031.17 1031.03 1030.87 1030.66 1030.40 1030.06 1029.64 1029.13 1028.55 1027.90 1027.22 1026.53 1025.83 1025.15 1024.50 1023.88 1023.28 1022.69 1022.11 1021.53 1020.95 1020.38 1019.83
1030.23 1030.53 1030.78 1031.00 1031.20 1031.37 1031.54 1031.69 1031.83 1031.95 1032.03 1032.07 1032.08 1032.03 1031.95 1031.84 1031.70 1031.56 1031.43 1031.30 1031.17 1031.03 1030.88 1030.69 1030.44 1030.13 1029.75 1029.30 1028.78 1028.22 1027.62 1027.01 1026.41 1025.83 1025.26 1024.72 1024.18 1023.65 1023.10 1022.53 1021.94 1021.34 1020.73
1029.70 1030.00 1030.26 1030.49 1030.71 1030.91 1031.10 1031.29 1031.45 1031.60 1031.72 1031.79 1031.83 1031.83 1031.79 1031.71 1031.61 1031.50 1031.38 1031.25 1031.13 1030.99 1030.84 1030.65 1030.41 1030.13 1029.79 1029.39 1028.94 1028.46 1027.96 1027.45 1026.95 1026.47 1026.01 1025.56 1025.11 1024.65 1024.16 1023.64 1023.07 1022.46 1021.83
1029.09 1029.39 1029.66 1029.92 1030.16 1030.40 1030.62 1030.83 1031.04 1031.22 1031.37 1031.49 1031.58 1031.62 1031.62 1031.58 1031.52 1031.43 1031.32 1031.20 1031.07 1030.93 1030.76 1030.57 1030.34 1030.08 1029.77 1029.42 1029.04 1028.64 1028.23 1027.82 1027.43 1027.05 1026.69 1026.34 1025.98 1025.61 1025.20 1024.74 1024.23 1023.65 1023.03
Thickness
5714 5715 5715 5714 5712 5711 5710 5709 5707 5706 5706 5703 5701 5699 5698 5699 5700 5701 5701 5701 5700 5700 5700 5699 5698 5697 5695 5694 5693 5692 5689 5687 5687 5685 5681 5681 5682 5682 5682 5682 5682 5682 5682
5708 5709 5710 5709 5708 5707 5706 5705 5704 5703 5702 5700 5698 5697 5695 5695 5695 5696 5696 5696 5696 5696 5696 5695 5693 5692 5691 5689 5689 5688 5684 5683 5683 5679 5674 5670 5671 5674 5676 5675 5675 5675 5676
5705 5704 5704 5704 5704 5703 5702 5703 5700 5699 5698 5697 5695 5694 5692 5691 5690 5689 5690 5691 5692 5692 5691 5690 5690 5689 5687 5685 5684 5684 5681 5678 5677 5677 5673 5665 5661 5662 5665 5667 5668 5668 5668
5705 5703 5702 5700 5700 5700 5701 5700 5698 5696 5694 5693 5690 5687 5685 5682 5683 5684 5685 5686 5687 5687 5687 5686 5686 5685 5684 5682 5681 5680 5679 5677 5673 5672 5671 5669 5665 5659 5655 5657 5660 5661 5661
5704 5702 5701 5700 5698 5698 5697 5696 5694 5692 5690 5688 5686 5683 5680 5679 5679 5680 5680 5681 5681 5682 5682 5682 5682 5681 5680 5678 5678 5676 5675 5673 5671 5668 5666 5663 5660 5658 5652 5649 5650 5652 5654
5702 5700 5699 5697 5695 5694 5692 5691 5689 5686 5685 5683 5681 5679 5676 5675 5674 5673 5673 5673 5674 5676 5677 5677 5677 5676 5675 5674 5674 5673 5671 5670 5668 5666 5663 5660 5656 5652 5649 5645 5643 5644 5646
5698 5696 5693 5691 5690 5688 5687 5686 5683 5681 5680 5678 5676 5674 5673 5671 5670 5669 5668 5667 5667 5669 5670 5672 5672 5671 5671 5670 5670 5668 5667 5665 5663 5661 5659 5657 5655 5652 5648 5643 5639 5638 5639
5695 5693 5691 5689 5687 5685 5683 5681 5678 5676 5675 5674 5672 5671 5669 5667 5666 5666 5665 5664 5663 5664 5665 5666 5667 5667 5666 5666 5665 5663 5662 5661 5659 5657 5655 5653 5651 5649 5646 5641 5637 5632 5632
5691 5689 5687 5685 5683 5681 5679 5677 5674 5671 5670 5669 5668 5667 5665 5664 5662 5661 5661 5661 5660 5661 5661 5661 5661 5661 5661 5661 5659 5658 5656 5655 5653 5651 5650 5647 5646 5644 5642 5640 5637 5631 5626
5686 5685 5683 5681 5679 5677 5675 5673 5670 5668 5666 5665 5663 5663 5661 5660 5658 5657 5656 5656 5656 5656 5656 5655 5655 5655 5655 5655 5654 5652 5651 5649 5647 5645 5644 5642 5640 5639 5637 5635 5633 5631 5627
5682 5680 5678 5676 5674 5672 5669 5667 5664 5662 5661 5660 5658 5657 5656 5655 5653 5652 5651 5651 5650 5650 5650 5650 5650 5649 5649 5649 5648 5647 5646 5643 5641 5640 5638 5637 5636 5634 5632 5630 5628 5626 5624
5679 5676 5673 5670 5667 5664 5662 5660 5658 5657 5656 5655 5653 5652 5651 5650 5648 5647 5646 5646 5645 5644 5644 5644 5643 5643 5643 5643 5642 5641 5640 5638 5636 5635 5634 5632 5631 5629 5627 5625 5623 5622 5621
5672 5669 5666 5663 5660 5658 5656 5654 5653 5651 5650 5649 5647 5646 5644 5644 5643 5642 5641 5640 5639 5638 5638 5637 5637 5637 5637 5637 5636 5635 5635 5634 5632 5631 5629 5627 5625 5623 5622 5620 5619 5617 5617
5665 5662 5659 5656 5655 5653 5650 5649 5647 5646 5645 5643 5641 5640 5639 5638 5637 5636 5635 5633 5632 5631 5631 5631 5630 5630 5631 5631 5630 5630 5629 5629 5628 5627 5625 5624 5622 5620 5618 5617 5615 5613 5610
5657 5656 5653 5651 5649 5646 5644 5643 5641 5640 5639 5636 5634 5633 5632 5632 5630 5629 5627 5626 5625 5625 5624 5624 5623 5623 5624 5625 5625 5625 5624 5623 5622 5621 5620 5620 5619 5618 5616 5614 5611 5609 5605
5651 5650 5648 5646 5644 5642 5640 5638 5636 5634 5633 5630 5628 5627 5625 5624 5623 5622 5621 5619 5618 5617 5617 5617 5616 5616 5617 5618 5619 5619 5618 5617 5616 5614 5614 5614 5613 5613 5612 5611 5610 5608 5604
5646 5644 5642 5641 5639 5637 5636 5633 5631 5629 5626 5624 5621 5620 5618 5618 5617 5616 5614 5613 5612 5610 5610 5610 5609 5609 5610 5612 5612 5612 5611 5610 5609 5609 5608 5609 5608 5607 5605 5605 5604 5603 5603
5641 5640 5637 5636 5634 5633 5630 5628 5625 5623 5620 5617 5615 5614 5612 5611 5610 5609 5607 5607 5606 5604 5603 5603 5603 5602 5603 5605 5606 5606 5604 5603 5603 5603 5603 5602 5602 5601 5600 5598 5597 5597 5596
5637 5635 5633 5631 5629 5627 5625 5621 5618 5616 5614 5612 5610 5609 5607 5605 5604 5603 5601 5600 5599 5598 5597 5596 5596 5595 5596 5598 5599 5599 5597 5596 5596 5597 5597 5597 5596 5596 5595 5593 5591 5590 5590
5631 5629 5627 5625 5623 5621 5619 5615 5611 5609 5608 5607 5606 5604 5602 5600 5599 5597 5596 5594 5593 5592 5590 5590 5589 5589 5589 5591 5592 5592 5590 5589 5589 5590 5590 5591 5591 5591 5590 5588 5586 5584 5584
5623 5622 5620 5618 5616 5614 5612 5608 5606 5604 5604 5603 5601 5599 5597 5595 5594 5592 5590 5588 5586 5584 5583 5582 5582 5582 5583 5584 5585 5585 5583 5583 5583 5584 5584 5584 5585 5585 5584 5583 5582 5581 5580
5614 5613 5612 5610 5609 5608 5605 5602 5599 5600 5598 5596 5594 5593 5591 5589 5588 5585 5583 5581 5579 5576 5575 5574 5574 5574 5575 5576 5578 5578 5578 5578 5576 5577 5578 5578 5578 5578 5578 5577 5577 5576 5574
5606 5605 5603 5601 5600 5599 5598 5595 5594 5593 5591 5589 5586 5585 5584 5582 5580 5578 5576 5573 5571 5569 5568 5567 5566 5567 5567 5568 5570 5571 5571 5570 5570 5570 5571 5571 5571 5570 5569 5569 5569 5567 5565
5597 5596 5595 5593 5591 5590 5590 5589 5588 5586 5584 5581 5579 5577 5575 5574 5572 5571 5569 5567 5565 5563 5562 5560 5559 5559 5559 5559 5560 5561 5561 5562 5562 5561 5561 5562 5561 5561 5561 5560 5559 5558 5557
5588 5587 5586 5584 5583 5582 5581 5581 5579 5578 5575 5573 5571 5570 5568 5566 5564 5562 5561 5560 5559 5558 5557 5555 5553 5552 5552 5553 5554 5553 5553 5553 5553 5552 5551 5550 5549 5549 5549 5549 5549 5548 5548
5578 5577 5576 5574 5573 5572 5572 5572 5571 5570 5567 5565 5563 5561 5559 5558 5556 5554 5553 5552 5552 5552 5551 5549 5548 5547 5547 5546 5546 5545 5545 5545 5544 5542 5540 5539 5539 5539 5540 5539 5539 5540 5540